Home   Weather   St. Croix Falls   Past weeks

Flag for USA Past Weather in St. Croix Falls, Wisconsin, USA — Yesterday and Last 2 Weeks

45 °F


Feels Like: 41 °F
Forecast: 41 / 56 °F
Wind: 7 mph from Southeast

Location: L O Simenstad Municipal Airport

Current Time: Oct 23, 2016 at 4:50:58 AM

Latest Report: Oct 23, 2016 at 4:15 AM

Visibility: 10 mi

Pressure: 29.87 "Hg

Humidity: 81%

Dew Point: 40 °F

Location of St. Croix FallsLocation

Past Weather in St. Croix Falls — Graph


St. Croix Falls Temperature Yesterday

Maximum temperature yesterday: 64 °F (at 3:55 PM)
Minimum temperature yesterday: 35 °F (at 7:35 AM)
Average temperature yesterday: 47 °F

High & Low Weather Summary for the Past Weeks

High74 °F (Oct 10, 3:15 PM)100% (Oct 8, 3:55 AM)30.44 "Hg (Oct 8, 3:55 AM)
Low29 °F (Oct 9, 7:15 AM)35% (Oct 10, 4:15 PM)29.37 "Hg (Oct 17, 4:55 PM)
Average50 °F75%30.04 "Hg
* Reported Oct 8 3:15 AM — Oct 23 3:35 AM, St. Croix Falls, Weather by CustomWeather, © 2016

Note: Actual official high and low records may vary slightly from our data, if they occured in-between our weather recording intervals... More about our weather records


St. Croix Falls Weather History for the Previous 24 Hours

Scroll right to see more
Time TempWeatherWind HumidityBarometerVisibility
3:35 AM
Sun, Oct 23
45 °FClear.6 mph83%29.91 "Hg10 mi
3:15 AM42 °FClear.6 mph100%29.91 "Hg10 mi
2:55 AM42 °FClear.No wind98%29.92 "Hg10 mi
2:35 AM39 °FClear.5 mph100%29.93 "Hg10 mi
2:15 AM40 °FClear.6 mph100%29.93 "Hg10 mi
1:55 AM40 °FClear.6 mph100%29.94 "Hg10 mi
1:35 AM40 °FClear.7 mph100%29.94 "Hg10 mi
1:15 AM39 °FClear.No wind100%29.95 "Hg10 mi
12:55 AM37 °FPassing clouds.No wind100%29.95 "Hg10 mi
12:35 AM37 °FClear.No wind100%29.96 "Hg10 mi
12:15 AM39 °FClear.No wind100%29.96 "Hg10 mi
11:55 PM
Sat, Oct 22
39 °FClear.No wind100%29.97 "Hg10 mi
11:35 PM38 °FClear.No wind100%29.97 "Hg10 mi
11:15 PM38 °FClear.3 mph100%29.97 "Hg10 mi
10:55 PM38 °FClear.No wind99%29.98 "Hg10 mi
10:35 PM39 °FClear.No wind100%29.98 "Hg10 mi
10:15 PM40 °FClear.No wind93%29.98 "Hg10 mi
9:55 PM41 °FClear.No wind100%29.98 "Hg10 mi
9:35 PM42 °FClear.No wind83%29.97 "Hg10 mi
9:15 PM42 °FClear.No wind86%29.97 "Hg10 mi
8:55 PM43 °FClear.No wind85%29.96 "Hg10 mi
8:35 PM43 °FClear.3 mph86%29.96 "Hg10 mi
8:15 PM44 °FClear.No wind84%29.97 "Hg10 mi
7:55 PM46 °FClear.No wind81%29.97 "Hg10 mi
7:35 PM46 °FClear.No wind80%29.97 "Hg10 mi
7:15 PM47 °FClear.No wind77%29.97 "Hg10 mi
6:55 PM48 °FClear.3 mph73%29.97 "Hg10 mi
6:35 PM52 °FClear.No wind65%29.97 "Hg10 mi
6:15 PM57 °FClear.3 mph54%29.97 "Hg10 mi
5:55 PM60 °FSunny.3 mph48%29.96 "Hg10 mi
5:35 PM62 °FSunny.No wind42%29.96 "Hg10 mi
5:15 PM63 °FSunny.No wind40%29.96 "Hg10 mi
4:55 PM63 °FSunny.No wind43%29.95 "Hg10 mi
4:35 PM63 °FSunny.No wind42%29.95 "Hg10 mi
4:15 PM63 °FSunny.No wind44%29.96 "Hg10 mi
3:55 PM64 °FSunny.No wind44%29.96 "Hg10 mi
3:35 PM63 °FSunny.5 mph46%29.97 "Hg10 mi
3:15 PM63 °FSunny.No wind46%29.96 "Hg10 mi
2:55 PM63 °FSunny.3 mph48%29.97 "Hg10 mi
2:35 PM62 °FSunny.No wind50%29.97 "Hg10 mi
2:15 PM62 °FSunny.5 mph51%29.98 "Hg10 mi
1:55 PM61 °FSunny.No wind50%29.98 "Hg10 mi
1:35 PM60 °FSunny.No wind52%29.99 "Hg10 mi
1:15 PM59 °FSunny.No wind56%30.00 "Hg10 mi
12:55 PM57 °FSunny.No wind57%30.01 "Hg10 mi
12:35 PM56 °FSunny.No wind60%30.01 "Hg10 mi
12:15 PM55 °FSunny.No wind61%30.02 "Hg10 mi
11:55 AM54 °FSunny.No wind63%30.02 "Hg10 mi
11:35 AM52 °FSunny.No wind66%30.03 "Hg10 mi
11:15 AM51 °FSunny.No wind69%30.03 "Hg10 mi
10:55 AM49 °FSunny.No wind72%30.02 "Hg7 mi
10:35 AM49 °FSunny.No wind72%30.02 "Hg10 mi
10:15 AM47 °FSunny.No wind74%30.01 "Hg10 mi
9:55 AM46 °FSunny.No wind75%30.02 "Hg10 mi
9:35 AM45 °FSunny.No wind77%30.02 "Hg10 mi
9:15 AM42 °FSunny.No wind84%30.01 "Hg10 mi
8:55 AM40 °FSunny.No wind100%30.01 "Hg10 mi
8:35 AM38 °FSunny.No wind100%30.01 "Hg10 mi
8:15 AM36 °FSunny.No wind100%30.00 "Hg10 mi
7:55 AM35 °FSunny.3 mph100%30.00 "Hg10 mi
7:35 AM35 °FClear.5 mph100%29.99 "Hg10 mi
7:15 AM35 °FClear.3 mph100%29.99 "Hg10 mi
6:55 AM36 °FClear.No wind100%30.00 "Hg10 mi
6:35 AM37 °FClear.No wind91%29.99 "Hg10 mi
6:15 AM39 °FClear.No wind85%29.99 "Hg10 mi
5:55 AM36 °FClear.No wind94%29.99 "Hg10 mi
5:35 AM36 °FClear.5 mph89%29.99 "Hg10 mi
5:15 AM37 °FClear.5 mph88%29.99 "Hg10 mi
4:55 AM38 °FClear.6 mph84%29.99 "Hg10 mi
4:35 AM39 °FClear.5 mph83%29.99 "Hg10 mi
4:15 AM41 °FClear.No wind79%29.99 "Hg10 mi
Weather by CustomWeather, © 2016

See weather overviewHow to use our weather pages